Time,TemperatureF,DewpointF,PressureIn,WindDirection,WindDirectionDegrees,WindSpeedMPH,WindSpeedGustMPH,Humidity,HourlyPrecipIn,Conditions,Clouds,dailyrainin,SoftwareType,DateUTC
2013-10-15 00:12:00,36.0,28.0,-100.00,ESE,110,1.0,3.0,72,0.00,,,-99.99,,2013-10-15 07:12:00,
2013-10-15 00:21:00,36.0,27.0,-100.00,ESE,107,1.0,3.0,69,0.00,,,-99.99,,2013-10-15 07:21:00,
2013-10-15 00:52:00,33.0,26.0,-100.00,ESE,106,2.0,4.0,74,0.00,,,-99.99,,2013-10-15 07:52:00,
2013-10-15 01:02:00,33.0,26.0,-100.00,ESE,106,2.0,4.0,74,0.00,,,-99.99,,2013-10-15 08:02:00,
2013-10-15 02:53:00,27.0,24.0,-100.00,WNW,294,0.0,3.0,88,0.00,,,-99.99,,2013-10-15 09:53:00,
2013-10-15 03:03:00,27.0,24.0,-100.00,WNW,294,0.0,3.0,88,0.00,,,-99.99,,2013-10-15 10:03:00,
2013-10-15 03:12:00,27.0,24.0,-100.00,WNW,294,0.0,3.0,88,0.00,,,-99.99,,2013-10-15 10:12:00,
2013-10-15 03:23:00,27.0,24.0,-100.00,WNW,294,0.0,3.0,88,0.00,,,-99.99,,2013-10-15 10:23:00,
2013-10-15 03:53:00,29.0,24.0,-100.00,ESE,104,3.0,4.0,82,0.00,,,-99.99,,2013-10-15 10:53:00,
2013-10-15 04:02:00,29.0,24.0,-100.00,ESE,104,3.0,4.0,82,0.00,,,-99.99,,2013-10-15 11:02:00,
2013-10-15 04:11:00,29.0,24.0,-100.00,ESE,104,3.0,4.0,82,0.00,,,-99.99,,2013-10-15 11:11:00,
2013-10-15 04:22:00,29.0,24.0,-100.00,ESE,104,3.0,4.0,82,0.00,,,-99.99,,2013-10-15 11:22:00,
2013-10-15 05:22:00,26.0,22.0,-100.00,NE,35,0.0,3.0,86,0.00,,,-99.99,,2013-10-15 12:22:00,
2013-10-15 06:21:00,26.0,22.0,-100.00,ENE,76,1.0,2.0,85,0.00,,,-99.99,,2013-10-15 13:21:00,
2013-10-15 07:11:00,27.0,23.0,-100.00,NE,40,1.0,3.0,84,0.00,,,-99.99,,2013-10-15 14:11:00,
2013-10-15 07:21:00,27.0,23.0,-100.00,NE,40,1.0,3.0,84,0.00,,,-99.99,,2013-10-15 14:21:00,
2013-10-15 08:22:00,25.0,25.0,-100.00,SE,138,2.0,4.0,99,0.00,,,-99.99,,2013-10-15 15:22:00,
2013-10-15 08:43:00,28.0,24.0,-100.00,NE,34,0.0,2.0,84,0.00,,,-99.99,,2013-10-15 15:43:00,
2013-10-15 08:53:00,29.0,25.0,-100.00,SW,227,1.0,3.0,85,0.00,,,-99.99,,2013-10-15 15:53:00,
2013-10-15 09:03:00,29.0,25.0,-100.00,SW,227,1.0,3.0,85,0.00,,,-99.99,,2013-10-15 16:03:00,
2013-10-15 09:12:00,29.0,25.0,-100.00,SW,227,1.0,3.0,85,0.00,,,-99.99,,2013-10-15 16:12:00,
2013-10-15 09:22:00,29.0,25.0,-100.00,SW,227,1.0,3.0,85,0.00,,,-99.99,,2013-10-15 16:22:00,
2013-10-15 10:22:00,42.0,28.0,-100.00,North,-999,-999.0,-999.0,59,0.00,,,-99.99,,2013-10-15 17:22:00,
2013-10-15 10:42:00,42.0,29.0,-100.00,WNW,295,1.0,4.0,59,0.00,,,-99.99,,2013-10-15 17:42:00,
2013-10-15 11:12:00,45.0,27.0,-100.00,NW,304,3.0,7.0,49,0.00,,,-99.99,,2013-10-15 18:12:00,
2013-10-15 11:21:00,47.0,26.0,-100.00,NW,313,5.0,9.0,43,0.00,,,-99.99,,2013-10-15 18:21:00,
2013-10-15 11:42:00,49.0,27.0,-100.00,WNW,292,4.0,9.0,42,0.00,,,-99.99,,2013-10-15 18:42:00,
2013-10-15 12:21:00,51.0,25.0,-100.00,NW,311,6.0,14.0,36,0.00,,,-99.99,,2013-10-15 19:21:00,
2013-10-15 12:42:00,52.0,26.0,-100.00,NW,304,7.0,13.0,36,0.00,,,-99.99,,2013-10-15 19:42:00,
2013-10-15 12:52:00,52.0,26.0,-100.00,NW,304,7.0,13.0,36,0.00,,,-99.99,,2013-10-15 19:52:00,
2013-10-15 13:21:00,54.0,24.0,-100.00,North,357,5.0,10.0,30,0.00,,,-99.99,,2013-10-15 20:21:00,
2013-10-15 13:32:00,54.0,24.0,-100.00,North,3,8.0,14.0,30,0.00,,,-99.99,,2013-10-15 20:32:00,
2013-10-15 13:42:00,54.0,23.0,-100.00,North,3,8.0,14.0,30,0.00,,,-99.99,,2013-10-15 20:42:00,
2013-10-15 14:02:00,55.0,23.0,-100.00,NW,318,10.0,18.0,28,0.00,,,-99.99,,2013-10-15 21:02:00,
2013-10-15 14:22:00,55.0,23.0,-100.00,NNW,347,11.0,18.0,28,0.00,,,-99.99,,2013-10-15 21:22:00,
2013-10-15 14:44:00,56.0,23.0,-100.00,NNW,332,10.0,17.0,27,0.00,,,-99.99,,2013-10-15 21:44:00,
2013-10-15 14:54:00,57.0,22.0,-100.00,NNW,342,11.0,17.0,26,0.00,,,-99.99,,2013-10-15 21:54:00,
2013-10-15 15:04:00,57.0,22.0,-100.00,NNW,342,11.0,17.0,26,0.00,,,-99.99,,2013-10-15 22:04:00,
2013-10-15 15:23:00,57.0,22.0,-100.00,NW,318,12.0,19.0,26,0.00,,,-99.99,,2013-10-15 22:23:00,
2013-10-15 15:32:00,57.0,22.0,-100.00,NW,318,12.0,19.0,26,0.00,,,-99.99,,2013-10-15 22:32:00,
2013-10-15 16:12:00,57.0,21.0,-100.00,NW,320,13.0,20.0,24,0.00,,,-99.99,,2013-10-15 23:12:00,
2013-10-15 16:43:00,57.0,21.0,-100.00,NW,318,15.0,21.0,24,0.00,,,-99.99,,2013-10-15 23:43:00,
2013-10-15 16:52:00,56.0,21.0,-100.00,NW,315,16.0,24.0,25,0.00,,,-99.99,,2013-10-15 23:52:00,
2013-10-15 17:12:00,56.0,20.0,-100.00,NW,320,17.0,24.0,24,0.00,,,-99.99,,2013-10-16 00:12:00,
2013-10-15 17:22:00,56.0,20.0,-100.00,NW,322,15.0,24.0,24,0.00,,,-99.99,,2013-10-16 00:22:00,
2013-10-15 17:33:00,56.0,20.0,-100.00,NW,322,15.0,24.0,24,0.00,,,-99.99,,2013-10-16 00:33:00,
2013-10-15 18:11:00,55.0,19.0,-100.00,NW,322,14.0,21.0,24,0.00,,,-99.99,,2013-10-16 01:11:00,
2013-10-15 18:22:00,55.0,19.0,-100.00,NW,322,14.0,21.0,24,0.00,,,-99.99,,2013-10-16 01:22:00,
2013-10-15 19:12:00,48.0,19.0,-100.00,NW,316,9.0,14.0,31,0.00,,,-99.99,,2013-10-16 02:12:00,
2013-10-15 19:22:00,48.0,19.0,-100.00,NW,316,9.0,14.0,31,0.00,,,-99.99,,2013-10-16 02:22:00,
2013-10-15 19:42:00,46.0,20.0,-100.00,NW,309,11.0,15.0,35,0.00,,,-99.99,,2013-10-16 02:42:00,
2013-10-15 19:52:00,46.0,20.0,-100.00,NW,309,11.0,15.0,35,0.00,,,-99.99,,2013-10-16 02:52:00,
2013-10-15 20:02:00,46.0,20.0,-100.00,NW,309,11.0,15.0,35,0.00,,,-99.99,,2013-10-16 03:02:00,
2013-10-15 20:11:00,46.0,20.0,-100.00,NW,309,11.0,15.0,35,0.00,,,-99.99,,2013-10-16 03:11:00,
2013-10-15 21:14:00,44.0,17.0,-100.00,NW,312,8.0,9.0,34,0.00,,,-99.99,,2013-10-16 04:14:00,
2013-10-15 21:24:00,44.0,17.0,-100.00,NW,312,8.0,9.0,34,0.00,,,-99.99,,2013-10-16 04:24:00,
2013-10-15 21:43:00,42.0,18.0,-100.00,WNW,302,9.0,11.0,38,0.00,,,-99.99,,2013-10-16 04:43:00,
2013-10-15 21:54:00,46.0,17.0,-100.00,NW,315,7.0,10.0,31,0.00,,,-99.99,,2013-10-16 04:54:00,
2013-10-15 22:13:00,44.0,17.0,-100.00,NNE,24,7.0,13.0,33,0.00,,,-99.99,,2013-10-16 05:13:00,
2013-10-15 22:22:00,41.0,18.0,-100.00,NE,51,4.0,7.0,39,0.00,,,-99.99,,2013-10-16 05:22:00,
2013-10-15 22:43:00,38.0,18.0,-100.00,ENE,68,5.0,7.0,43,0.00,,,-99.99,,2013-10-16 05:43:00,
2013-10-15 23:12:00,34.0,19.0,-100.00,ESE,104,5.0,7.0,53,0.00,,,-99.99,,2013-10-16 06:12:00,
2013-10-15 23:22:00,34.0,22.0,-100.00,SE,140,2.0,7.0,61,0.00,,,-99.99,,2013-10-16 06:22:00,
2013-10-15 23:43:00,34.0,21.0,-100.00,East,93,2.0,4.0,59,0.00,,,-99.99,,2013-10-16 06:43:00,
2013-10-15 23:52:00,34.0,21.0,-100.00,East,93,2.0,4.0,59,0.00,,,-99.99,,2013-10-16 06:52:00,